FW4485 Weather Reports


time (UTC)temp
F
wind
direction
speed
knots
gust
knots
rain 1hr
in
rain 24hr
in
rain mn
in
humidity
%
barometer
mb
20260504081511 37 355 0.0 0.0 0.00 0.00 0.00 88 1016.9
20260504044539 44 355 0.0 0.0 0.00 0.00 0.00 73 1017.0
20260504043033 44 355 0.0 0.0 0.00 0.00 0.00 73 1016.9
20260504041519 45 355 0.0 0.9 0.00 0.00 0.00 73 1016.9
20260504040024 45 355 0.0 0.9 0.00 0.00 0.00 74 1016.9
20260504034536 46 355 0.0 0.0 0.00 0.00 0.00 71 1016.8
20260504033012 46 355 0.0 0.9 0.00 0.00 0.00 69 1016.9
20260504031514 47 355 0.0 0.9 0.00 0.00 0.00 66 1017.1
20260504030023 48 355 0.0 0.9 0.00 0.00 0.00 66 1017.0
20260504024525 48 356 0.0 0.9 0.00 0.00 0.00 63 1017.0
20260504023026 49 109 0.0 0.0 0.00 0.00 0.00 62 1017.0
20260504021533 49 109 0.0 0.0 0.00 0.00 0.00 59 1016.9
20260504020016 49 109 0.0 0.0 0.00 0.00 0.00 62 1016.9
20260504014520 50 109 0.0 0.9 0.00 0.00 0.00 63 1016.5
20260504013033 50 109 0.0 0.9 0.00 0.00 0.00 60 1016.2
20260504011528 50 109 0.0 0.9 0.00 0.00 0.00 60 1016.1
20260504010033 49 109 0.0 0.0 0.00 0.00 0.00 62 1015.9
20260504004516 50 109 0.0 0.0 0.00 0.00 0.00 58 1015.9
20260504003020 52 109 0.0 0.0 0.00 0.00 0.00 53 1015.8
20260504001525 54 108 0.0 0.0 0.00 0.00 0.00 49 1015.7
20260504000027 56 108 0.0 0.0 0.00 0.00 0.00 46 1015.6
20260503234527 58 109 0.0 0.0 0.00 0.00 0.00 41 1015.4
20260503233018 60 110 0.0 0.0 0.00 0.00 0.00 40 1015.5
20260503231525 61 110 0.0 0.9 0.00 0.00 0.00 37 1015.4
20260503230026 62 226 0.0 2.6 0.00 0.00 0.00 36 1015.5
20260503224527 63 198 0.0 3.5 0.00 0.00 0.00 35 1015.6
20260503223029 63 214 0.0 2.6 0.00 0.00 0.00 33 1015.5
20260503221529 65 294 0.0 2.6 0.00 0.00 0.00 32 1015.5
20260503220022 66 250 0.9 1.7 0.00 0.00 0.00 28 1015.7
20260503214526 68 69 0.9 7.0 0.00 0.00 0.00 27 1015.8
20260503213022 68 262 0.9 4.3 0.00 0.00 0.00 29 1016.1
20260503211518 69 249 0.9 4.3 0.00 0.00 0.00 25 1016.2
20260503210021 69 28 0.9 2.6 0.00 0.00 0.00 22 1016.2
20260503204526 69 288 0.9 1.7 0.00 0.00 0.00 24 1016.4
20260503203029 68 235 0.9 3.5 0.00 0.00 0.00 31 1016.4
20260503201525 67 104 0.9 4.3 0.00 0.00 0.00 24 1016.7
20260503200019 67 162 1.7 4.3 0.00 0.00 0.00 28 1016.9
20260503194527 67 215 0.9 2.6 0.00 0.00 0.00 28 1017.2
20260503193026 66 350 0.9 5.2 0.00 0.00 0.00 25 1017.3
20260503191528 67 124 0.9 5.2 0.00 0.00 0.00 26 1017.3
20260503190019 66 134 0.9 3.5 0.00 0.00 0.00 32 1017.5
20260503184522 66 233 0.9 2.6 0.00 0.00 0.00 28 1017.9
20260503183033 65 13 1.7 2.6 0.00 0.00 0.00 29 1018.1
20260503181542 64 153 1.7 3.5 0.00 0.00 0.00 31 1018.3
20260503180029 63 208 0.9 6.1 0.00 0.00 0.00 32 1018.5
20260503174528 64 339 1.7 4.3 0.00 0.00 0.00 29 1018.8
20260503173039 63 262 0.9 4.3 0.00 0.00 0.00 35 1018.8
20260503171523 61 33 1.7 6.1 0.00 0.00 0.00 32 1018.9